Home > Time Zones > World Clock > Weather > Iraq > Hilla > Past weeks

Flag for Iraq Weather past 2 weeks in Hilla, Iraq

Now
91 °F

Sunny.


Feels Like: 87 °F
Forecast: 90 / 111 °F
Wind: 7 mph from East

Location: Kermanshah Airport

Current Time: Jul 23, 2014 at 11:41:02 AM

Latest Report: Jul 23, 2014 at 11:00 AM


Visibility: 10 mi

Pressure: 29.86 "Hg

Humidity: 13%

Dew point: 34 °F

Location of HillaLocation

Historic Weather in Hilla — Graph

°F

Hilla temperature yesterday

Maximum temperature yesterday: 93 °F (at 2:30 PM)
Minimum temperature yesterday: 66 °F (at 5:00 AM)
Average temperature yesterday: 83 °F

Past Weeks' High & Low Weather Summary

 TemperatureHumidityPressure
High108 °F (Jul 16, 2:00 PM)37% (Jul 22, 5:50 AM)29.92 "Hg (Jul 22, 5:50 AM)
Low59 °F (Jul 10, 5:00 AM)3% (Jul 9, 4:30 PM)29.74 "Hg (Jul 20, 2:00 PM)
Average88 °F13%29.84 "Hg
* Reported Jul 8 8:30 AM — Jul 23 8:30 AM, Hilla, Weather by CustomWeather, © 2014

Note: Actual official high and low records may vary slightly from our data, if they occured in-between our weather recording intervals... More about our weather records

Advertising

Hilla weather history for previous 24 hours

 ConditionsComfort  
Time TempWeatherWind HumidityBarometerVisibility
8:30 AM
Jul 23
81 °FSunny.9 mph18%29.86 "Hg10 mi
8:00 AM79 °FSunny.No wind23%29.86 "Hg10 mi
7:30 AM75 °FSunny.No wind24%29.86 "Hg10 mi
7:00 AM72 °FSunny.No wind29%29.86 "Hg10 mi
6:30 AM70 °FSunny.No wind27%29.86 "Hg10 mi
6:00 AM61 °FClear.No wind34%29.89 "Hg10 mi
5:00 AM59 °FClear.5 mph34%29.86 "Hg10 mi
4:00 AM61 °FClear.5 mph31%29.86 "Hg10 mi
3:00 AM66 °FClear.No wind28%29.86 "Hg10 mi
8:00 PM
Jul 22
82 °FSunny.12 mph15%29.83 "Hg10 mi
7:00 PM86 °FSunny.14 mph13%29.83 "Hg10 mi
6:00 PM91 °FSunny.7 mph7%29.83 "Hg10 mi
5:30 PM91 °FSunny.7 mph5%29.83 "Hg10 mi
5:00 PM93 °FSunny.7 mph4%29.83 "Hg10 mi
4:30 PM93 °FSunny.5 mph4%29.83 "Hg10 mi
4:00 PM93 °FSunny.7 mph5%29.83 "Hg10 mi
3:56 PM93 °FSunny.7 mph5%29.83 "Hg10 mi
3:30 PM93 °FSunny.5 mph6%29.83 "Hg10 mi
3:00 PM93 °FSunny.9 mph7%29.83 "Hg10 mi
2:30 PM93 °FSunny.7 mph7%29.83 "Hg10 mi
2:00 PM91 °FSunny.9 mph8%29.83 "Hg10 mi
1:30 PM90 °FSunny.7 mph9%29.86 "Hg10 mi
1:00 PM90 °FSunny.5 mph9%29.86 "Hg10 mi
12:30 PM90 °FSunny.5 mph11%29.86 "Hg10 mi
12:00 PM90 °FSunny.9 mph10%29.86 "Hg10 mi
11:30 AM88 °FSunny.9 mph13%29.86 "Hg10 mi
11:00 AM86 °FSunny.9 mph12%29.86 "Hg10 mi
Weather by CustomWeather, © 2014

See weather overviewHow to use our weather pages